FW3216 Weather Reports


time (UTC)temp
C
wind
direction
speed
KPH
gust
KPH
rain 1hr
cm
rain 24hr
cm
rain mn
cm
humidity
%
barometer
mb
20260504081516 13 225 11.3 16.1 0.00 0.00 0.00 45 997.0
20260504080515 13 225 11.3 17.7 0.00 0.00 0.00 45 997.3
20260504050515 12 203 4.8 9.7 0.00 0.00 0.00 50 1000.7
20260504045515 12 203 4.8 9.7 0.00 0.00 0.00 50 1000.9
20260504044515 12 225 4.8 9.7 0.00 0.00 0.00 50 1001.0
20260504043516 12 225 4.8 9.7 0.00 0.00 0.00 50 1001.2
20260504042516 12 225 4.8 6.4 0.00 0.00 0.00 49 1001.4
20260504041517 12 225 3.2 6.4 0.00 0.00 0.00 50 1001.5
20260504040515 12 248 3.2 4.8 0.00 0.00 0.00 50 1001.8
20260504035516 12 248 4.8 6.4 0.00 0.00 0.00 52 1002.0
20260504034515 12 248 3.2 6.4 0.00 0.00 0.00 52 1002.1
20260504033515 12 248 3.2 4.8 0.00 0.00 0.00 51 1002.3
20260504032516 12 248 1.6 3.2 0.00 0.00 0.00 53 1002.5
20260504031515 12 0.0 3.2 0.00 0.00 0.00 47 1002.7
20260504030515 12 248 1.6 1.6 0.00 0.00 0.00 45 1002.8
20260504025515 13 248 1.6 3.2 0.00 0.00 0.00 48 1002.9
20260504024515 13 0.0 0.0 0.00 0.00 0.00 42 1003.0
20260504023515 13 248 1.6 3.2 0.00 0.00 0.00 40 1003.0
20260504022515 14 248 1.6 3.2 0.00 0.00 0.00 38 1003.0
20260504021535 15 248 1.6 3.2 0.00 0.00 0.00 38 1003.2
20260504020535 15 248 1.6 3.2 0.00 0.00 0.00 35 1003.0
20260504015535 16 248 1.6 3.2 0.00 0.00 0.00 34 1002.9
20260504014515 16 248 3.2 4.8 0.00 0.00 0.00 33 1003.0
20260504013515 17 248 1.6 4.8 0.00 0.00 0.00 32 1003.0
20260504012515 17 248 3.2 4.8 0.00 0.00 0.00 33 1003.2
20260504011516 18 248 1.6 6.4 0.00 0.00 0.00 31 1003.2
20260504010538 18 248 4.8 11.3 0.00 0.00 0.00 29 1003.3
20260504005517 19 248 6.4 12.9 0.00 0.00 0.00 29 1003.2
20260504004517 19 270 8.0 17.7 0.00 0.00 0.00 29 1003.2
20260504003517 19 270 4.8 14.5 0.00 0.00 0.00 29 1003.3
20260504002517 19 248 8.0 20.9 0.00 0.00 0.00 28 1003.4
20260504001558 20 225 8.0 17.7 0.00 0.00 0.00 28 1003.4
20260504000638 20 270 6.4 17.7 0.00 0.00 0.00 30 1003.4
20260503235537 20 225 6.4 16.1 0.00 0.00 0.00 28 1003.4
20260503234517 20 270 8.0 19.3 0.00 0.00 0.00 28 1003.5
20260503233517 20 293 8.0 19.3 0.00 0.00 0.00 27 1003.5
20260503232517 20 293 6.4 14.5 0.00 0.00 0.00 26 1003.6
20260503231517 20 270 6.4 14.5 0.00 0.00 0.00 28 1003.7
20260503230517 20 248 9.7 24.1 0.00 0.00 0.00 25 1003.8
20260503225517 21 270 9.7 22.5 0.00 0.00 0.00 26 1004.0
20260503224517 21 248 4.8 16.1 0.00 0.00 0.00 27 1004.0
20260503223517 21 293 6.4 14.5 0.00 0.00 0.00 26 1004.0
20260503222517 21 293 4.8 9.7 0.00 0.00 0.00 28 1004.2
20260503221517 21 270 6.4 16.1 0.00 0.00 0.00 26 1004.2
20260503220517 21 315 6.4 16.1 0.00 0.00 0.00 26 1004.2
20260503215517 21 315 3.2 12.9 0.00 0.00 0.00 26 1004.4
20260503214537 21 293 4.8 16.1 0.00 0.00 0.00 27 1004.5
20260503213517 21 293 8.0 16.1 0.00 0.00 0.00 26 1004.6
20260503212538 21 23 12.9 25.7 0.00 0.00 0.00 26 1004.8
20260503211537 21 270 9.7 22.5 0.00 0.00 0.00 26 1004.8
20260503210517 21 270 6.4 20.9 0.00 0.00 0.00 28 1004.9
20260503205517 21 293 11.3 20.9 0.00 0.00 0.00 27 1005.0
20260503204517 21 293 9.7 19.3 0.00 0.00 0.00 26 1005.1
20260503203517 21 293 8.0 27.4 0.00 0.00 0.00 25 1005.1
20260503202517 21 293 9.7 25.7 0.00 0.00 0.00 28 1005.3
20260503201517 21 270 11.3 24.1 0.00 0.00 0.00 26 1005.4
20260503200517 21 293 9.7 25.7 0.00 0.00 0.00 27 1005.5
20260503195517 21 0 6.4 22.5 0.00 0.00 0.00 29 1005.5
20260503194518 20 23 9.7 32.2 0.00 0.00 0.00 31 1005.6
20260503193517 21 315 12.9 24.1 0.00 0.00 0.00 29 1005.6
20260503192518 21 293 9.7 22.5 0.00 0.00 0.00 30 1005.5
20260503191517 20 0 9.7 22.5 0.00 0.00 0.00 30 1005.8
20260503190538 20 0 9.7 27.4 0.00 0.00 0.00 29 1005.8
20260503185517 20 0 11.3 25.7 0.00 0.00 0.00 29 1006.0
20260503184557 21 23 9.7 29.0 0.00 0.00 0.00 29 1005.8
20260503183517 20 23 9.7 22.5 0.00 0.00 0.00 32 1005.9
20260503182516 20 23 14.5 27.4 0.00 0.00 0.00 30 1005.7
20260503181516 20 23 12.9 27.4 0.00 0.00 0.00 33 1006.0
20260503180517 20 293 11.3 24.1 0.00 0.00 0.00 31 1006.1
20260503175518 20 23 9.7 17.7 0.00 0.00 0.00 39 1006.0
20260503174516 20 315 6.4 19.3 0.00 0.00 0.00 41 1006.2
20260503173517 20 0 9.7 24.1 0.00 0.00 0.00 39 1006.1
20260503172537 20 23 9.7 19.3 0.00 0.00 0.00 38 1006.5
20260503171516 19 338 11.3 24.1 0.00 0.00 0.00 39 1006.5
20260503170517 20 23 9.7 24.1 0.00 0.00 0.00 38 1006.4
20260503150517 18 23 9.7 20.9 0.00 0.00 0.00 47 1006.1
20260503130516 13 293 6.4 14.5 0.00 0.00 0.00 52 1005.4
20260503110516 11 203 1.6 4.8 0.00 0.00 0.00 53 1004.1